CZ-6A DEB, 54533

Orbit data source: Space-Track

CZ-6A DEB, 54533 is space debris in SSO originally from a launch on Fri, 11 Nov 2022 UTC launched from the Taiyaun Space Center, China (TSC). Debris objects in space refer to the collection of defunct objects orbiting the Earth. Examples of debris include non-operational satellites, rocket bodies, and fragments generated from explosions, collisions, or faulty payload assembly.

Loading next visibility...
Identifier
54533, 2022-151KM
Orbit
SSO
Country
Flag of CNCN / PRC
Related business
Manufacturer
SAST
Mission
Spacecraft
Bus & Motor
Unknown
Mass
Unknown
Launch date (UTC)
2022-11-11 (4 years ago)
Launch vehicle
Unknown
Launch site
Taiyaun Space Center, China (TSC)
Object type
Payload
Rocket body
Debris
Shape & HBR
Unknown shape, 0.6 m
Radar Cross Section
Medium (>0.1 m² and <1 m²)

Expand to show TLE details & history
Last TLE update: 2 days ago

TLE from 2 days ago
0 CZ-6A DEB
1 54533U 22151KM  26171.39016816  .00000315  00000-0  21026-3 0  9995
2 54533  98.8603 164.8063 0068130   8.1668 352.0593 14.07042966184741
Epoch: 2026-06-20T09:21Z
TLE epoch observation values (Epoch: 2026-06-20T09:21:50.529Z)
Latitude
-0.00002°
Longitude
115.74029°
Altitude
823.493 km
Speed
7.466 km/s
True Right ascension
10h 59m 13s
True Declination
0° 00' 00"
Sunlit
Object was in daylight at epoch
Visualization orbit readout
Latitude
Unknown
Longitude
Unknown
Altitude
Unknown
Speed
Unknown
Apparent Right ascension
Unknown
Apparent Declination
Unknown
Sunlit
N/A
Visualization observer readout
Local Sidereal Time
23:18:36
Azimuth
Unknown
Elevation
Unknown
Doppler factor
Unknown
Orbital elements
Apogee altitude
916.05 km
Perigee altitude
817.332 km
Semi-major axis
7,244.828 km
Eccentricity
0.00681
Inclination
98.8603°
RAAN
164.8063°
Arg. of periapsis
8.1668°
True anomaly
351.95053°
Mean anomaly
352.0593°
Eccentric anomaly
352.00501°
Mean motion
3.51966 °/min
Orbital period
102.28 mins
BSTAR
0.00021026
Loading maneuver chart data...
Computing Atmospheric mass density...
Loading historical data...
Loading historical data...
Loading historical data...
Loading historical data...
Loading historical data...
Loading historical data...
Loading historical data...

Documentation

Showing up to 5 results
|